#datint,netname,site,siteID,timestamp,IntT,BattV,AirT2,AirT,AirT_Avg,AirT_Max,AirT_Min,RH_Avg,RH_Max,RH_Min,EA_Avg,Td_Avg,Td_Max,Td_Min,WindS_Smp,WindS_Avg,WindD_Avg,WindD_SD,WindS_Max,ETo,ETr,SoilT4,SoilT8,SoilVWC8,SolarW_Avg,wetstate_Avg,wetT_Avg,Precip_accum,Precip_WPG,Precip_TB
15min,AgWx,beryljct,423,26NOV2019:14:15:00,37.7,14.19,31.5,31.3,32.1,32.7,31.3,46,48,43,0.258,13.5,14.9,11.6,2.346,4.8,108,31,10.2,0.00143,0.00178,34.9,38.3,19,402,.,.,7.45,0.00,0.00
15min,AgWx,beryljct,423,26NOV2019:14:30:00,37.0,14.22,32.5,31.5,31.6,32.1,31.2,44,47,42,0.260,12.2,14.2,10.8,1.622,5.0,109,15,8.7,0.00126,0.00161,35.0,38.3,19,358,.,.,7.45,0.00,0.00
15min,AgWx,beryljct,423,26NOV2019:14:45:00,37.1,14.19,32.6,32.1,32.1,33.2,31.6,45,48,42,0.286,13.3,15.7,11.2,7.695,4.0,83,27,8.9,0.00138,0.00169,35.2,38.3,19,395,.,.,7.45,0.00,0.00
15min,AgWx,beryljct,423,26NOV2019:15:00:00,37.3,14.2,32.6,32.1,32.1,32.8,31.7,45,47,42,0.267,13.2,14.8,11.2,4.341,5.1,86,16,7.7,0.00114,0.00150,35.4,38.3,19,319,.,.,7.44,0.00,0.00
15min,AgWx,beryljct,423,26NOV2019:15:15:00,37.0,14.18,33.2,32.1,32.0,32.3,31.9,41,45,37,0.238,11.0,13.1,8.6,6.007,5.4,126,12,8.1,0.00107,0.00145,35.6,38.3,19,291,.,.,7.45,0.00,0.00
15min,AgWx,beryljct,423,26NOV2019:15:30:00,37.0,14.18,33.6,32.7,32.4,32.7,32.1,40,45,38,0.285,10.8,13.9,9.4,3.223,5.0,111,20,8.8,0.00119,0.00157,35.8,38.3,19,323,.,.,7.45,0.00,0.00
15min,AgWx,beryljct,423,26NOV2019:15:45:00,37.2,14.2,32.9,32.1,32.5,33.1,32.0,43,46,41,0.266,12.6,14.4,11.1,4.626,6.1,107,17,12.2,0.00106,0.00146,36.0,38.3,19,279,.,.,7.44,0.00,0.00
15min,AgWx,beryljct,423,26NOV2019:16:00:00,37.0,14.17,32.4,32.0,32.2,32.5,31.9,46,48,44,0.276,13.5,14.8,12.6,4.56,6.1,112,14,10.4,0.00084,0.00122,36.1,38.3,19,220,.,.,7.45,0.00,0.00
15min,AgWx,beryljct,423,26NOV2019:16:15:00,36.7,14.18,31.9,31.9,31.9,32.2,31.7,49,52,45,0.314,14.7,16.1,13.3,5.502,5.8,116,12,8.3,0.00066,0.00099,36.3,38.3,19,178,.,.,7.44,0.00,0.00
15min,AgWx,beryljct,423,26NOV2019:16:30:00,36.2,13.46,31.5,31.1,31.6,31.9,31.1,52,53,51,0.310,15.9,16.6,15.4,6.357,5.8,114,10,8.2,0.00024,0.00030,36.4,38.3,19,119,.,.,7.44,0.00,0.00
15min,AgWx,beryljct,423,26NOV2019:16:45:00,34.9,14.24,30.9,30.7,30.8,31.1,30.4,55,57,52,0.330,16.6,17.4,15.6,4.867,5.2,122,5.9,6.8,0.00017,0.00022,36.5,38.3,19,84,.,.,7.45,0.00,0.00
15min,AgWx,beryljct,423,26NOV2019:17:00:00,33.6,13.32,29.9,29.9,30.2,30.8,29.8,59,61,57,0.341,17.6,18.0,17.3,3.266,4.1,124,4.9,5.2,0.00007,0.00010,36.5,38.3,19,33,.,.,7.45,0.00,0.00
15min,AgWx,beryljct,423,26NOV2019:17:15:00,32.0,13.19,29.4,29.4,29.8,30.0,29.4,61,63,58,0.335,17.8,18.6,17.2,4.604,5.2,141,20,8.3,0.00007,0.00009,36.6,38.3,19,9,.,.,7.45,0.00,0.00
15min,AgWx,beryljct,423,26NOV2019:17:30:00,30.7,13.13,28.9,28.9,29.5,29.8,28.9,61,64,59,0.342,17.5,18.1,17.0,5.502,6.0,176,7.6,7.8,0.00007,0.00010,36.6,38.3,19,3,.,.,7.45,0.00,0.00
15min,AgWx,beryljct,423,26NOV2019:17:45:00,29.5,13.07,28.1,27.9,28.4,28.9,27.9,63,66,62,0.339,17.5,18.3,17.1,5.086,5.0,176,6.1,6.8,0.00004,0.00006,36.5,38.3,19,0,.,.,7.45,0.00,0.00
15min,AgWx,beryljct,423,26NOV2019:18:00:00,28.6,13.07,27.0,27.0,27.7,28.0,26.9,65,68,62,0.340,17.5,18.0,16.7,4.691,5.2,180,5.1,6.9,0.00003,0.00005,36.5,38.4,19,0,.,.,7.45,0.00,0.00
15min,AgWx,beryljct,423,26NOV2019:18:15:00,27.6,13.05,26.3,26.3,26.6,26.9,26.2,69,70,67,0.339,17.7,18.0,17.4,3.793,4.6,181,4.7,5.7,0.00001,0.00002,36.4,38.4,19,0,.,.,7.45,0.00,0.00
15min,AgWx,beryljct,423,26NOV2019:18:30:00,26.7,13.04,25.7,25.4,25.8,26.2,25.4,71,72,70,0.328,17.7,18.0,17.1,3.968,3.8,178,6.1,4.8,-0.00002,-0.00001,36.4,38.4,19,0,.,.,7.46,0.01,0.00
15min,AgWx,beryljct,423,26NOV2019:18:45:00,26.0,13.02,24.7,24.1,24.9,25.5,24.1,73,77,70,0.340,17.5,18.1,17.0,4.954,4.3,179,10,5.5,-0.00001,-0.00001,36.3,38.4,19,0,.,.,7.45,0.00,0.00
15min,AgWx,beryljct,423,26NOV2019:19:00:00,25.2,13.01,25.0,24.1,23.9,24.3,23.6,78,79,77,0.341,18.1,18.3,17.9,5.174,4.1,196,15,5.3,-0.00003,-0.00003,36.3,38.4,19,0,.,.,7.46,0.00,0.00
15min,AgWx,beryljct,423,26NOV2019:19:15:00,24.6,13,24.6,24.7,24.8,25.1,24.2,72,77,69,0.325,17.1,18.1,16.2,3.464,4.5,184,8.4,6.6,-0.00001,0.00000,36.2,38.4,19,0,.,.,7.46,0.00,0.00
15min,AgWx,beryljct,423,26NOV2019:19:30:00,24.3,12.99,23.9,23.5,24.3,24.9,23.4,72,75,69,0.322,16.4,17.1,16.1,4.801,4.0,166,7.3,5.6,-0.00002,-0.00001,36.1,38.5,19,0,.,.,7.45,0.00,0.00
15min,AgWx,beryljct,423,26NOV2019:19:45:00,24.0,12.99,25.4,24.8,23.8,24.8,23.4,74,76,71,0.323,16.8,17.3,16.3,4.911,4.5,172,7.6,5.8,-0.00001,-0.00001,36.1,38.5,19,0,.,.,7.46,0.00,0.00
15min,AgWx,beryljct,423,26NOV2019:20:00:00,23.9,12.96,24.1,23.8,24.2,24.9,23.7,73,75,71,0.320,16.7,17.0,16.5,3.486,3.9,198,15,5.1,-0.00002,-0.00002,36.0,38.5,19,0,.,.,7.46,0.00,0.00
15min,AgWx,beryljct,423,26NOV2019:20:15:00,24.0,12.96,27.7,26.9,26.1,27.2,23.9,62,73,56,0.283,14.7,16.6,13.5,1.271,2.8,209,17,6.1,-0.00003,-0.00002,36.0,38.5,19,0,.,.,7.46,0.00,0.00
15min,AgWx,beryljct,423,26NOV2019:20:30:00,24.3,12.96,28.9,28.0,27.6,28.1,26.8,54,57,52,0.284,13.2,13.8,12.8,6.007,1.9,213,26,7.0,-0.00007,-0.00008,35.9,38.5,19,0,.,.,7.46,0.00,0.00
15min,AgWx,beryljct,423,26NOV2019:20:45:00,25.6,12.94,29.6,29.2,28.8,29.2,28.1,54,55,53,0.292,14.2,14.6,13.8,7.168,6.5,208,9.1,9.2,0.00011,0.00014,35.9,38.5,19,0,.,.,7.46,0.00,0.00
15min,AgWx,beryljct,423,26NOV2019:21:00:00,27.0,12.94,29.7,29.7,29.3,29.8,29.1,54,55,52,0.292,14.6,15.0,14.2,4.538,6.4,210,9.3,8.9,0.00011,0.00015,35.8,38.5,19,0,.,.,7.46,0.00,0.00
15min,AgWx,beryljct,423,26NOV2019:21:15:00,28.3,12.92,30.5,30.2,30.0,30.2,29.6,52,54,50,0.292,14.5,15.3,13.8,6.599,8.3,189,11,12.7,0.00016,0.00020,35.8,38.5,19,0,.,.,7.46,0.00,0.00
15min,AgWx,beryljct,423,26NOV2019:21:30:00,29.3,12.93,31.1,30.4,30.3,30.5,30.2,51,53,50,0.291,14.5,15.2,14.1,15.1,8.3,199,10,15.6,0.00016,0.00020,35.7,38.5,19,0,.,.,7.46,0.00,0.00
15min,AgWx,beryljct,423,26NOV2019:21:45:00,30.0,12.92,30.9,30.9,30.6,30.9,30.3,50,53,47,0.277,14.2,15.1,13.1,8.37,11.2,194,9.2,16.9,0.00021,0.00025,35.7,38.5,19,0,.,.,7.46,0.00,0.00
15min,AgWx,beryljct,423,26NOV2019:22:00:00,30.5,12.92,30.8,30.7,30.7,30.9,30.5,49,51,48,0.284,13.9,14.3,13.4,9.19,11.2,192,8.7,17.1,0.00022,0.00026,35.7,38.4,19,0,.,.,7.46,0.00,0.00
15min,AgWx,beryljct,423,26NOV2019:22:15:00,30.8,12.92,30.6,30.4,30.5,30.7,30.3,51,52,49,0.294,14.5,15.1,13.9,8.37,10.5,184,8.7,17.8,0.00020,0.00024,35.6,38.4,19,0,.,.,7.46,0.00,0.00
15min,AgWx,beryljct,423,26NOV2019:22:30:00,31.0,12.9,30.8,30.8,30.6,30.9,30.4,50,52,49,0.285,14.2,14.7,13.7,5.502,8.8,172,10,15.5,0.00018,0.00022,35.6,38.4,19,0,.,.,7.46,0.00,0.00
15min,AgWx,beryljct,423,26NOV2019:22:45:00,31.1,12.9,31.2,30.8,30.8,30.9,30.6,49,50,49,0.284,14.0,14.4,13.8,10.96,9.7,173,10,13.1,0.00020,0.00024,35.5,38.4,19,0,.,.,7.46,0.00,0.00
15min,AgWx,beryljct,423,26NOV2019:23:00:00,31.1,12.9,31.2,30.9,30.8,30.9,30.8,49,50,48,0.284,13.9,14.2,13.6,11.22,10.0,176,12,16.5,0.00021,0.00025,35.5,38.4,19,0,.,.,7.46,0.00,0.00
15min,AgWx,beryljct,423,26NOV2019:23:15:00,31.3,12.88,31.9,31.3,31.1,31.3,30.8,48,50,47,0.278,13.6,14.2,13.3,19.05,14.5,185,8.2,20.7,0.00026,0.00030,35.5,38.4,19,0,.,.,7.46,0.00,0.00
15min,AgWx,beryljct,423,26NOV2019:23:30:00,31.6,12.88,31.6,31.6,31.5,31.9,31.4,46,47,45,0.279,13.1,13.5,12.8,15.1,18.8,187,7.2,23.9,0.00031,0.00035,35.4,38.4,19,0,.,.,7.46,0.00,0.00
15min,AgWx,bigpiney,439,26NOV2019:14:15:00,25.2,14.59,18.0,17.6,17.8,18.3,17.5,76,79,74,0.265,11.6,12.4,10.8,11.84,10.4,174,9.6,13.9,0.00044,0.00059,32.6,34.1,50,152,0,0.0,5.62,0.00,0.00
15min,AgWx,bigpiney,439,26NOV2019:14:30:00,24.2,14.59,17.8,17.2,17.5,17.9,17.1,79,81,78,0.267,12.1,12.4,11.8,7.103,9.5,172,7.1,12.3,0.00036,0.00049,32.7,34.1,50,115,0,0.0,5.62,0.00,0.00
15min,AgWx,bigpiney,439,26NOV2019:14:45:00,23.5,14.31,17.2,16.8,17.1,17.3,16.8,82,83,81,0.267,12.5,12.9,12.2,7.958,9.1,174,7.8,11.4,0.00044,0.00056,32.7,34.1,50,218,0,0.0,5.62,0.00,0.00
15min,AgWx,bigpiney,439,26NOV2019:15:00:00,23.0,14.57,18.2,17.6,17.0,17.8,16.6,82,84,77,0.259,12.3,12.7,11.7,9.25,8.3,173,6.9,11.6,0.00039,0.00050,32.7,34.1,50,194,0,0.0,5.62,0.00,0.00
15min,AgWx,bigpiney,439,26NOV2019:15:15:00,23.0,14.57,17.1,16.8,17.3,17.8,16.8,78,80,77,0.257,11.7,12.0,11.5,8.57,10.0,170,7.1,12.0,0.00036,0.00049,32.7,34.1,50,157,0,0.0,5.62,0.00,0.00
15min,AgWx,bigpiney,439,26NOV2019:15:30:00,22.4,13.29,16.4,15.9,16.4,16.8,15.9,80,81,79,0.252,11.3,11.7,11.0,9.69,10.2,172,7.2,15.0,0.00025,0.00036,32.7,34.1,50,64,0,0.0,5.62,0.00,0.00
15min,AgWx,bigpiney,439,26NOV2019:15:45:00,21.5,13.4,16.9,16.4,16.1,16.4,15.8,77,81,75,0.240,10.2,11.1,9.5,9.84,9.6,170,8.1,12.8,0.00024,0.00036,32.7,34.1,50,64,0,0.0,5.62,0.00,0.00
15min,AgWx,bigpiney,439,26NOV2019:16:00:00,20.8,14.19,17.4,16.9,16.7,16.9,16.4,76,76,75,0.244,10.4,10.7,10.0,8.33,8.9,168,6.8,11.8,0.00019,0.00032,32.7,34.1,50,87,0,0.0,5.62,0.00,0.00
15min,AgWx,bigpiney,439,26NOV2019:16:15:00,20.4,13.25,14.7,14.6,16.0,16.9,14.6,76,78,75,0.230,9.9,10.5,9.1,4.647,5.8,170,5.7,8.9,0.00008,0.00016,32.7,34.1,50,58,0,0.0,5.62,0.00,0.00
15min,AgWx,bigpiney,439,26NOV2019:16:30:00,19.7,14.05,12.2,11.8,12.9,14.6,11.4,80,83,78,0.215,7.9,9.1,6.6,4.823,4.7,193,12,5.9,-0.00003,0.00002,32.7,34.1,50,45,0,0.0,5.62,0.00,0.00
15min,AgWx,bigpiney,439,26NOV2019:16:45:00,18.5,13.02,11.4,10.5,11.2,11.8,10.0,84,86,83,0.211,7.3,7.8,6.3,3.42,3.7,181,18,4.7,-0.00011,-0.00008,32.7,34.1,50,15,0,0.0,5.62,0.00,0.00
15min,AgWx,bigpiney,439,26NOV2019:17:00:00,16.8,12.92,9.1,8.6,10.0,11.5,8.2,86,88,84,0.198,6.7,8.2,4.5,6.27,4.8,211,8.6,6.5,-0.00001,-0.00001,32.7,34.1,50,4,0,0.0,5.62,0.00,0.00
15min,AgWx,bigpiney,439,26NOV2019:17:15:00,14.9,12.87,6.9,6.5,7.8,8.9,6.5,88,91,86,0.177,4.9,6.8,3.3,4.954,5.5,219,5.9,7.1,-0.00001,-0.00001,32.6,34.1,50,1,0,0.0,5.62,0.00,0.00
15min,AgWx,bigpiney,439,26NOV2019:17:30:00,13.1,12.84,5.2,3.3,4.7,6.5,2.9,86,87,85,0.153,1.3,3.4,-0.6,5.48,4.3,230,8.0,5.6,-0.00001,-0.00001,32.6,34.0,50,0,0,0.0,5.62,0.00,0.00
15min,AgWx,bigpiney,439,26NOV2019:17:45:00,11.6,12.83,5.3,5.5,5.7,6.5,3.6,86,88,84,0.164,2.4,3.7,0.5,6.379,6.5,228,8.0,8.9,-0.00000,0.00000,32.6,34.1,50,0,0,0.0,5.62,0.00,0.00
15min,AgWx,bigpiney,439,26NOV2019:18:00:00,10.5,12.8,5.4,4.8,3.7,5.3,2.2,83,84,81,0.158,-0.3,1.4,-2.4,2.784,4.8,253,37,7.2,-0.00000,-0.00000,32.6,34.1,50,0,0,0.0,5.62,0.00,0.00
15min,AgWx,bigpiney,439,26NOV2019:18:15:00,9.4,12.79,4.0,2.3,2.6,4.9,1.5,84,88,79,0.143,-1.1,0.9,-3.5,4.209,2.0,202,56,6.3,-0.00003,-0.00003,32.6,34.0,50,0,0,0.0,5.62,0.00,0.00
15min,AgWx,bigpiney,439,26NOV2019:18:30:00,8.2,12.77,1.1,-0.7,-0.2,2.9,-1.1,83,87,81,0.124,-4.1,-0.2,-5.1,1.513,4.3,215,17,6.0,-0.00001,-0.00000,32.6,34.0,50,0,0,0.0,5.62,0.00,0.00
15min,AgWx,bigpiney,439,26NOV2019:18:45:00,6.9,12.77,2.7,2.7,1.4,3.3,-0.6,86,88,81,0.147,-1.9,0.1,-4.2,0.088,1.2,102,73,3.3,-0.00004,-0.00005,32.7,34.1,50,0,0,0.0,5.62,0.00,0.00
15min,AgWx,bigpiney,439,26NOV2019:19:00:00,6.0,12.76,-0.9,-1.4,0.6,3.2,-1.4,83,86,80,0.116,-3.3,-0.1,-5.7,5.13,4.3,173,14,5.9,-0.00001,-0.00001,32.6,34.1,50,0,0,0.0,5.62,0.00,0.00
15min,AgWx,bigpiney,439,26NOV2019:19:15:00,5.2,12.75,-3.0,-3.6,-2.7,-1.4,-3.6,83,84,82,0.106,-6.6,-5.5,-7.5,4.165,5.7,202,9.3,7.6,0.00000,0.00000,32.6,34.1,50,0,0,0.0,5.62,0.00,0.00
15min,AgWx,bigpiney,439,26NOV2019:19:30:00,4.2,12.74,-5.5,-7.2,-4.0,-2.0,-7.9,83,86,79,0.087,-7.9,-5.3,-12.6,3.946,4.1,215,18,5.7,-0.00001,-0.00000,32.6,34.0,50,0,0,0.0,5.62,0.00,0.00
15min,AgWx,bigpiney,439,26NOV2019:19:45:00,3.1,12.72,-6.6,-7.4,-6.8,-6.2,-7.4,84,84,82,0.089,-10.4,-9.7,-11.2,4.034,3.4,221,12,4.5,-0.00001,-0.00001,32.6,34.1,50,0,0,0.0,5.62,0.00,0.00
15min,AgWx,bigpiney,439,26NOV2019:20:00:00,1.9,12.72,-1.1,-2.1,-4.3,-2.1,-7.4,86,88,83,0.120,-7.5,-4.9,-11.1,4.735,4.2,277,18,5.1,-0.00001,-0.00001,32.6,34.1,50,0,0,0.0,5.62,0.00,0.00
15min,AgWx,bigpiney,439,26NOV2019:20:15:00,1.0,12.7,-4.6,-5.4,-4.2,-1.6,-8.0,85,88,81,0.101,-7.5,-4.4,-12.3,0,2.4,285,40,5.0,-0.00002,-0.00002,32.6,34.1,50,0,0,0.0,5.62,0.00,0.00
15min,AgWx,bigpiney,439,26NOV2019:20:30:00,0.4,12.7,-7.4,-6.8,-4.9,-4.0,-6.8,85,87,83,0.090,-8.3,-7.1,-10.7,0,1.4,342,17,2.6,-0.00003,-0.00004,32.6,34.1,50,0,0,0.0,5.62,0.00,0.00
15min,AgWx,bigpiney,439,26NOV2019:20:45:00,-0.3,12.69,-5.7,-6.1,-5.6,-4.4,-7.0,85,86,82,0.095,-9.1,-7.6,-11.0,2.828,2.8,328,15,3.8,-0.00001,-0.00002,32.6,34.1,50,0,0,0.0,5.62,0.00,0.00
15min,AgWx,bigpiney,439,26NOV2019:21:00:00,-0.8,12.67,-5.6,-6.0,-6.2,-5.6,-6.8,84,85,83,0.096,-9.7,-8.9,-10.5,2.916,3.0,300,16,4.0,-0.00001,-0.00001,32.6,34.1,50,0,0,0.0,5.62,0.00,0.00
15min,AgWx,bigpiney,439,26NOV2019:21:15:00,-1.4,12.67,-4.8,-6.5,-8.5,-6.0,-10.9,83,87,80,0.097,-12.3,-9.3,-15.3,2.521,2.6,268,16,3.3,-0.00001,-0.00001,32.6,34.1,50,0,0,0.0,5.62,0.00,0.00
15min,AgWx,bigpiney,439,26NOV2019:21:30:00,-1.9,12.65,-1.8,-2.4,-3.3,-1.8,-6.4,88,89,86,0.118,-5.9,-4.4,-9.2,2.061,2.4,323,17,3.1,-0.00002,-0.00003,32.7,34.1,50,0,0,0.0,5.62,0.00,0.00
15min,AgWx,bigpiney,439,26NOV2019:21:45:00,-2.0,12.65,-0.6,-1.6,-1.9,-1.4,-2.9,87,87,86,0.122,-4.9,-4.3,-6.1,1.973,2.2,351,29,3.0,-0.00002,-0.00003,32.7,34.1,50,0,0,0.0,5.62,0.00,0.00
15min,AgWx,bigpiney,439,26NOV2019:22:00:00,-1.7,12.63,-1.4,-1.7,-1.2,-0.7,-1.7,86,87,86,0.120,-4.3,-3.7,-5.0,0.482,1.0,36,18,2.2,-0.00004,-0.00005,32.7,34.0,50,0,0,0.0,5.62,0.00,0.00
15min,AgWx,bigpiney,439,26NOV2019:22:15:00,-1.3,12.63,-3.4,-4.4,-3.0,-1.5,-5.0,84,86,82,0.103,-6.6,-4.6,-9.0,0,0.9,163,4.8,2.3,-0.00004,-0.00005,32.7,34.1,50,0,0,0.0,5.62,0.00,0.00
15min,AgWx,bigpiney,439,26NOV2019:22:30:00,-1.0,12.62,-2.9,-3.5,-4.1,-3.5,-4.4,84,85,84,0.109,-7.6,-6.9,-8.0,0.68,0.7,325,26,1.9,-0.00004,-0.00006,32.7,34.0,50,0,0,0.0,5.62,0.00,0.00
15min,AgWx,bigpiney,439,26NOV2019:22:45:00,-0.7,12.61,-2.2,-3.0,-3.3,-3.0,-3.6,85,85,84,0.112,-6.7,-6.4,-7.1,0.066,0.9,89,53,2.2,-0.00004,-0.00005,32.6,34.1,50,0,0,0.0,5.62,0.00,0.00
15min,AgWx,bigpiney,439,26NOV2019:23:00:00,-0.2,12.61,-1.8,-2.5,-2.8,-2.5,-3.0,85,85,85,0.114,-6.3,-5.9,-6.5,1.513,0.6,169,40,1.9,-0.00005,-0.00007,32.6,34.1,50,0,0,0.0,5.62,0.00,0.00
15min,AgWx,bigpiney,439,26NOV2019:23:15:00,0.3,12.6,-1.1,-1.9,-2.2,-1.8,-2.5,85,85,84,0.117,-5.8,-5.3,-6.1,0,0.4,262,14,1.5,-0.00005,-0.00007,32.6,34.0,50,0,0,0.0,5.62,0.00,0.00
15min,AgWx,bigpiney,439,26NOV2019:23:30:00,0.8,12.59,-0.2,-1.0,-1.5,-1.0,-1.9,85,85,84,0.122,-5.0,-4.5,-5.4,1.82,1.0,270,8.3,2.2,-0.00004,-0.00005,32.6,34.0,50,0,0,0.0,5.62,0.00,0.00
15min,AgWx,bigpiney,439,26NOV2019:23:45:00,1.2,12.56,0.6,-0.1,-0.5,-0.1,-1.0,85,85,85,0.127,-4.0,-3.7,-4.5,0.723,1.3,272,11,2.7,-0.00004,-0.00005,32.6,34.1,50,0,0,0.0,5.62,0.00,0.00
15min,AgWx,blo,425,26NOV2019:14:30:00,31.9,14.3,22.5,22.1,23.5,25.1,22.1,53,55,51,0.220,8.8,10.4,7.7,6.905,8.2,257,15,12.0,0.00095,0.00127,33.6,35.5,21,314,100,37.3,12.35,0.00,0.00
15min,AgWx,blo,425,26NOV2019:14:45:00,30.3,14.17,22.0,21.4,21.8,22.2,21.4,55,57,54,0.214,8.0,8.9,7.4,8.72,7.5,260,18,12.5,0.00062,0.00088,33.6,35.5,21,144,100,30.8,12.36,0.00,0.00
15min,AgWx,blo,425,26NOV2019:15:00:00,28.6,14.44,23.5,22.6,21.7,22.7,21.4,54,56,53,0.220,7.8,8.6,7.3,8.22,6.9,259,16,10.8,0.00065,0.00090,33.7,35.5,21,198,100,30.6,12.36,0.00,0.00
15min,AgWx,blo,425,26NOV2019:15:15:00,28.2,14.41,23.6,23.3,23.3,23.7,22.7,51,53,49,0.216,7.8,8.9,6.8,5.985,6.0,261,16,10.2,0.00084,0.00111,33.7,35.5,21,292,100,35.6,12.36,0.00,0.00
15min,AgWx,blo,425,26NOV2019:15:30:00,28.0,14.43,22.4,21.6,22.1,23.7,21.2,53,55,50,0.215,7.5,8.6,6.9,6.335,5.8,254,15,10.0,0.00049,0.00072,33.7,35.5,21,125,100,30.9,12.36,0.00,0.00
15min,AgWx,blo,425,26NOV2019:15:45:00,27.5,14.46,22.5,21.8,21.8,22.1,21.5,53,55,52,0.215,7.4,8.1,6.8,5.524,6.8,252,12,9.6,0.00053,0.00078,33.7,35.5,21,187,100,31.0,12.36,0.00,0.00
15min,AgWx,blo,425,26NOV2019:16:00:00,27.3,14.05,20.0,19.9,21.1,21.9,19.9,54,55,53,0.205,7.0,7.9,6.3,3.508,5.3,238,12,7.7,0.00032,0.00052,33.7,35.5,21,127,100,30.8,12.36,0.00,0.00
15min,AgWx,blo,425,26NOV2019:16:15:00,26.2,13.75,18.9,18.3,19.0,19.9,18.3,57,59,55,0.204,6.4,6.5,6.2,3.573,3.9,227,7.3,4.6,0.00021,0.00035,33.7,35.5,21,37,100,24.6,12.36,0.00,0.00
15min,AgWx,blo,425,26NOV2019:16:30:00,24.4,13.55,18.2,17.1,17.6,18.3,17.1,61,63,59,0.207,6.5,6.7,6.3,4.187,3.9,245,9.7,5.4,0.00012,0.00024,33.7,35.5,21,27,100,22.3,12.36,0.00,0.00
15min,AgWx,blo,425,26NOV2019:16:45:00,22.6,13.37,17.5,17.0,17.3,17.6,17.0,64,64,63,0.209,7.0,7.4,6.7,4.034,4.6,250,8.5,5.9,-0.00003,0.00008,33.7,35.5,21,23,100,21.8,12.36,0.00,0.00
15min,AgWx,blo,425,26NOV2019:17:00:00,21.3,13.24,16.6,16.1,16.6,17.1,16.1,65,66,64,0.207,6.9,7.1,6.6,3.88,4.6,260,11,5.8,0.00005,0.00006,33.7,35.5,21,7,100,19.9,12.36,0.00,0.00
15min,AgWx,blo,425,26NOV2019:17:15:00,20.1,13.15,16.6,16.0,16.1,16.2,15.9,66,67,66,0.209,6.9,7.1,6.6,5.371,5.3,252,8.3,7.0,0.00005,0.00006,33.7,35.5,21,1,100,19.4,12.37,0.00,0.00
15min,AgWx,blo,425,26NOV2019:17:30:00,19.2,13.12,16.2,15.3,15.7,16.0,15.3,69,70,67,0.212,7.2,7.3,6.9,7.256,7.0,239,6.2,8.3,0.00006,0.00007,33.7,35.5,21,0,100,19.1,12.37,0.00,0.00
15min,AgWx,blo,425,26NOV2019:17:45:00,18.4,13.1,15.3,14.5,15.1,15.6,14.4,70,71,69,0.209,7.0,7.5,6.7,6.489,6.1,242,5.8,8.1,0.00004,0.00006,33.7,35.5,21,0,100,18.2,12.36,0.00,0.00
15min,AgWx,blo,425,26NOV2019:18:00:00,17.7,13.09,14.5,13.9,14.8,15.2,13.9,71,72,70,0.204,7.0,7.3,6.3,4.319,5.9,236,16,7.6,0.00004,0.00005,33.7,35.5,21,0,100,17.9,12.37,0.00,0.00
15min,AgWx,blo,425,26NOV2019:18:15:00,17.1,13.07,12.5,12.0,13.0,14.0,11.9,74,76,72,0.198,6.1,6.7,5.6,5.678,5.2,224,12,6.4,0.00002,0.00003,33.7,35.5,21,0,100,16.5,12.37,0.00,0.00
15min,AgWx,blo,425,26NOV2019:18:30:00,16.2,13.06,12.8,11.9,11.7,12.0,11.5,77,77,76,0.200,5.8,6.1,5.6,7.037,6.0,224,7.4,7.3,0.00002,0.00003,33.7,35.5,21,0,100,15.3,12.37,0.00,0.00
15min,AgWx,blo,425,26NOV2019:18:45:00,15.6,13.05,15.8,14.6,12.6,14.6,11.7,76,77,72,0.212,6.4,7.6,5.8,7.344,7.6,231,12,9.3,0.00003,0.00004,33.7,35.5,21,0,100,16.0,12.37,0.00,0.00
15min,AgWx,blo,425,26NOV2019:19:00:00,15.5,13.04,15.1,14.6,14.9,15.2,14.6,71,72,71,0.210,7.3,7.6,7.1,5.963,7.2,244,7.4,9.3,0.00005,0.00006,33.7,35.5,21,0,100,18.2,12.37,0.00,0.00
15min,AgWx,blo,425,26NOV2019:19:15:00,15.6,13.03,15.0,14.4,14.6,14.9,14.4,71,72,70,0.206,7.1,7.2,6.6,4.647,6.1,251,9.0,7.9,0.00004,0.00005,33.7,35.5,21,0,100,17.8,12.37,0.00,0.00
15min,AgWx,blo,425,26NOV2019:19:30:00,15.4,13.02,11.9,11.1,12.4,14.4,11.1,73,76,71,0.191,5.5,6.6,4.8,4.823,5.4,228,9.5,6.9,0.00003,0.00004,33.7,35.4,21,0,100,16.0,12.37,0.00,0.00
15min,AgWx,blo,425,26NOV2019:19:45:00,14.8,13,10.6,10.1,10.8,11.2,10.0,76,77,75,0.182,4.7,5.1,3.9,5.196,3.2,247,51,5.2,-0.00000,-0.00000,33.7,35.4,21,0,100,14.3,12.37,0.00,0.00
15min,AgWx,blo,425,26NOV2019:20:00:00,14.2,13,11.1,10.5,11.3,12.6,9.9,75,78,72,0.183,4.8,6.2,4.0,6.752,4.2,243,25,6.8,0.00001,0.00002,33.7,35.4,21,0,100,14.6,12.37,0.00,0.00
15min,AgWx,blo,425,26NOV2019:20:15:00,13.7,12.99,11.3,10.9,10.5,11.7,9.8,77,78,75,0.189,4.6,5.8,4.0,6.16,5.2,215,9.5,6.6,0.00002,0.00002,33.6,35.4,21,0,100,14.2,12.37,0.00,0.00
15min,AgWx,blo,425,26NOV2019:20:30:00,13.3,12.97,12.3,11.2,10.7,11.3,10.4,77,78,76,0.197,5.1,5.7,4.4,7.41,6.9,222,7.8,8.3,0.00002,0.00003,33.6,35.4,21,0,100,14.8,12.37,0.00,0.00
15min,AgWx,blo,425,26NOV2019:20:45:00,13.3,12.98,11.5,10.7,11.0,11.4,10.7,78,79,78,0.196,5.5,5.8,5.3,7.212,6.5,221,7.7,7.9,0.00002,0.00003,33.6,35.4,21,0,100,15.3,12.37,0.00,0.00
15min,AgWx,blo,425,26NOV2019:21:00:00,13.3,12.97,12.4,11.2,11.0,11.3,10.8,79,79,79,0.200,5.8,6.1,5.6,5.283,6.4,222,6.6,7.5,0.00002,0.00003,33.6,35.5,21,0,100,15.4,12.37,0.00,0.00
15min,AgWx,blo,425,26NOV2019:21:15:00,13.2,12.96,11.4,10.7,11.1,11.5,10.7,79,79,79,0.197,5.8,6.2,5.6,4.494,5.0,222,6.1,6.4,0.00001,0.00002,33.6,35.4,21,0,100,15.2,12.36,0.00,0.00
15min,AgWx,blo,425,26NOV2019:21:30:00,13.1,12.95,11.5,10.7,10.8,11.0,10.6,79,80,79,0.196,5.6,5.8,5.4,3.771,4.5,231,10,5.5,0.00000,0.00001,33.6,35.4,21,0,100,15.1,12.37,0.00,0.00
15min,AgWx,blo,425,26NOV2019:21:45:00,13.0,12.94,11.9,11.3,10.8,11.3,10.6,79,79,78,0.198,5.5,5.9,5.3,3.793,3.8,238,10,5.0,-0.00000,0.00000,33.6,35.4,21,0,100,15.2,12.37,0.00,0.00
15min,AgWx,blo,425,26NOV2019:22:00:00,12.9,12.94,12.7,11.9,11.2,11.9,10.9,78,79,78,0.203,5.8,6.3,5.5,3.113,3.4,236,7.5,4.3,-0.00001,-0.00000,33.6,35.4,21,0,100,15.9,12.36,0.00,0.00
15min,AgWx,blo,425,26NOV2019:22:15:00,13.1,12.94,13.3,12.5,12.2,12.9,11.7,77,78,76,0.205,6.4,6.9,6.0,3.508,3.3,235,11,4.6,-0.00001,-0.00000,33.6,35.4,21,0,100,17.3,12.37,0.01,0.00
15min,AgWx,blo,425,26NOV2019:22:30:00,13.5,12.93,13.7,12.9,12.9,13.7,12.4,77,78,75,0.212,6.9,7.7,6.4,4.077,3.1,223,14,5.1,-0.00001,-0.00000,33.5,35.4,21,0,100,18.6,12.36,0.00,0.00
15min,AgWx,blo,425,26NOV2019:22:45:00,13.9,12.91,14.8,13.8,13.2,13.8,12.9,77,78,76,0.216,7.4,7.7,7.2,4.034,4.4,209,12,6.9,0.00001,0.00001,33.5,35.4,21,0,100,18.8,12.36,0.00,0.00
15min,AgWx,blo,425,26NOV2019:23:00:00,14.4,12.92,13.9,13.1,13.7,14.6,13.1,76,78,74,0.214,7.5,8.1,7.1,3.705,4.1,206,10,6.0,0.00001,0.00002,33.5,35.4,21,0,100,19.2,12.36,0.00,0.00
15min,AgWx,blo,425,26NOV2019:23:15:00,14.7,12.91,14.2,13.5,13.5,13.7,13.1,77,78,76,0.215,7.5,7.7,7.5,3.88,4.0,212,4.3,4.9,0.00000,0.00001,33.5,35.4,21,0,100,18.9,12.36,0.00,0.00
15min,AgWx,blo,425,26NOV2019:23:30:00,15.0,12.91,16.3,15.4,14.3,15.4,13.4,76,77,73,0.221,8.0,8.6,7.5,6.511,5.1,189,21,9.3,0.00002,0.00003,33.5,35.4,21,0,100,19.5,12.36,0.00,0.00
15min,AgWx,blo,425,26NOV2019:23:45:00,15.4,12.9,15.9,15.1,15.4,15.7,15.0,73,74,72,0.221,8.2,8.4,7.9,9.12,7.1,185,9.9,13.0,0.00004,0.00006,33.5,35.4,21,0,100,20.5,12.36,0.00,0.00
15min,AgWx,blo,441,26NOV2019:13:15:00,35.4,14.07,30.5,30.5,30.2,31.0,29.6,56,58,55,0.321,16.6,17.9,15.8,17.84,16.0,291,11,21.0,0.00148,0.00201,42.6,39.4,29,449,0,0.0,6.40,0.00,0.00
15min,AgWx,blo,441,26NOV2019:13:30:00,35.6,13.13,30.8,30.4,30.8,31.5,30.3,57,60,55,0.319,17.6,18.5,16.2,13.15,14.6,282,12,20.6,0.00144,0.00195,42.7,39.4,29,426,0,0.0,6.40,0.00,0.00
15min,AgWx,blo,441,26NOV2019:13:45:00,35.4,14.16,30.5,29.8,29.8,30.4,29.4,55,57,54,0.306,15.8,16.6,15.0,14.99,12.9,288,14,20.3,0.00095,0.00140,42.7,39.4,29,159,0,0.0,6.40,0.00,0.00
15min,AgWx,blo,441,26NOV2019:14:00:00,35.3,14.09,32.0,31.9,31.5,32.5,29.8,55,57,53,0.335,17.1,19.1,15.1,14.89,12.8,286,12,16.7,0.00169,0.00221,42.8,39.4,29,518,0,0.0,6.40,0.00,0.00
15min,AgWx,blo,441,26NOV2019:14:15:00,35.8,14.2,32.2,31.9,31.9,32.4,31.5,54,57,51,0.321,17.1,18.9,15.7,13.99,12.8,299,13,19.7,0.00144,0.00196,42.9,39.4,29,406,0,0.0,6.40,0.00,0.00
15min,AgWx,blo,441,26NOV2019:14:30:00,36.2,14.11,32.0,31.2,31.7,32.3,31.0,53,55,51,0.309,16.4,17.9,15.0,11,12.7,291,13,17.0,0.00132,0.00184,43.0,39.5,29,344,0,0.0,6.40,0.00,0.00
15min,AgWx,blo,441,26NOV2019:14:45:00,36.3,14.19,32.9,32.3,31.9,32.4,31.3,51,56,48,0.304,15.7,18.3,14.4,13.68,12.6,289,10,19.1,0.00135,0.00189,43.0,39.5,29,361,0,0.0,6.40,0.00,0.00
15min,AgWx,blo,441,26NOV2019:15:00:00,36.5,14.09,32.4,32.2,32.3,32.9,32.0,49,52,46,0.289,15.2,17.4,13.3,15.78,11.8,292,13,17.6,0.00134,0.00188,43.1,39.5,29,343,0,0.0,6.40,0.00,0.00
15min,AgWx,blo,441,26NOV2019:15:15:00,36.5,12.83,33.0,32.4,32.1,32.4,31.8,46,48,44,0.298,13.8,14.9,12.5,8.62,13.5,290,12,18.6,0.00125,0.00185,43.2,39.6,29,289,0,0.0,6.40,0.00,0.00
15min,AgWx,blo,441,26NOV2019:15:30:00,36.5,13.01,32.7,32.8,32.5,33.2,32.0,47,51,44,0.305,14.7,16.9,12.7,9.6,9.6,283,13,15.0,0.00115,0.00165,43.3,39.5,29,287,0,0.0,6.40,0.00,0.00
15min,AgWx,blo,441,26NOV2019:15:45:00,36.5,12.81,31.5,31.4,32.3,32.8,31.4,47,50,45,0.300,14.4,15.3,13.5,7.168,9.2,281,13,14.7,0.00084,0.00131,43.3,39.6,29,184,0,0.0,6.40,0.00,0.00
15min,AgWx,blo,441,26NOV2019:16:00:00,36.1,14.02,31.9,31.5,31.3,31.5,31.0,47,51,44,0.276,13.2,15.2,12.2,7.256,9.1,290,14,13.1,0.00069,0.00114,43.3,39.6,29,125,0,0.0,6.40,0.00,0.00
15min,AgWx,blo,441,26NOV2019:16:15:00,35.7,14.18,31.7,31.2,31.4,31.5,31.2,45,48,43,0.258,12.6,13.9,11.6,10.15,9.4,296,12,13.5,0.00069,0.00116,43.4,39.6,29,132,0,0.0,6.40,0.00,0.00
15min,AgWx,blo,441,26NOV2019:16:30:00,35.2,12.69,30.7,30.1,30.7,31.3,30.1,45,47,43,0.261,11.9,12.9,11.2,8.07,8.5,291,12,13.1,0.00049,0.00091,43.3,39.7,29,43,0,0.0,6.40,0.00,0.00
15min,AgWx,blo,441,26NOV2019:16:45:00,34.5,12.75,30.0,29.9,30.1,30.2,29.8,47,49,46,0.273,12.3,12.9,11.7,6.292,6.5,283,10,9.7,0.00028,0.00061,43.3,39.6,29,54,0,0.0,6.40,0.00,0.00